Time,TemperatureF,DewpointF,PressureIn,WindDirection,WindDirectionDegrees,WindSpeedMPH,WindSpeedGustMPH,Humidity,HourlyPrecipIn,Conditions,Clouds,dailyrainin,SoftwareType,DateUTC
2013-06-09 00:02:00,91.0,-99.9,-100.00,South,180,8.0,-999.0,-999,-99.99,,,0.00,,2013-06-09 06:02:00,
2013-06-09 00:12:00,91.0,-99.9,-100.00,South,180,8.0,-999.0,-999,-99.99,,,0.00,,2013-06-09 06:12:00,
2013-06-09 00:22:00,91.0,-99.9,-100.00,WSW,248,17.0,-999.0,-999,-99.99,,,0.00,,2013-06-09 06:22:00,
2013-06-09 00:32:00,91.0,-99.9,-100.00,West,270,14.0,-999.0,-999,-99.99,,,0.00,,2013-06-09 06:32:00,
2013-06-09 00:42:00,91.0,-99.9,-100.00,NE,45,23.0,-999.0,-999,-99.99,,,0.00,,2013-06-09 06:42:00,
2013-06-09 00:52:00,91.0,-99.9,-100.00,NE,45,23.0,-999.0,-999,-99.99,,,0.00,,2013-06-09 06:52:00,
2013-06-09 01:02:00,90.0,-99.9,-100.00,NE,45,14.0,-999.0,-999,-99.99,,,0.00,,2013-06-09 07:02:00,
2013-06-09 01:12:00,90.0,-99.9,-100.00,NE,45,14.0,-999.0,-999,-99.99,,,0.00,,2013-06-09 07:12:00,
2013-06-09 01:22:00,90.0,-99.9,-100.00,WNW,293,14.0,-999.0,-999,-99.99,,,0.00,,2013-06-09 07:22:00,
2013-06-09 01:32:00,89.0,-99.9,-100.00,SW,225,11.0,-999.0,-999,-99.99,,,0.00,,2013-06-09 07:32:00,
2013-06-09 01:42:00,89.0,-99.9,-100.00,SW,225,11.0,-999.0,-999,-99.99,,,0.00,,2013-06-09 07:42:00,
2013-06-09 01:53:00,89.0,-99.9,-100.00,West,270,11.0,-999.0,-999,-99.99,,,0.00,,2013-06-09 07:53:00,
2013-06-09 02:02:00,89.0,-99.9,-100.00,SSE,158,13.0,-999.0,-999,-99.99,,,0.00,,2013-06-09 08:02:00,
2013-06-09 02:12:00,89.0,-99.9,-100.00,SSE,158,13.0,-999.0,-999,-99.99,,,0.00,,2013-06-09 08:12:00,
2013-06-09 02:22:00,88.0,-99.9,-100.00,SW,225,14.0,-999.0,-999,-99.99,,,0.00,,2013-06-09 08:22:00,
2013-06-09 02:32:00,88.0,-99.9,-100.00,WSW,248,17.0,-999.0,-999,-99.99,,,0.00,,2013-06-09 08:32:00,
2013-06-09 02:42:00,88.0,-99.9,-100.00,WSW,248,17.0,-999.0,-999,-99.99,,,0.00,,2013-06-09 08:42:00,
2013-06-09 02:53:00,88.0,-99.9,-100.00,West,270,5.0,-999.0,-999,-99.99,,,0.00,,2013-06-09 08:53:00,
2013-06-09 03:02:00,87.0,-99.9,-100.00,SW,225,3.0,-999.0,-999,-99.99,,,0.00,,2013-06-09 09:02:00,
2013-06-09 03:12:00,87.0,-99.9,-100.00,SW,225,3.0,-999.0,-999,-99.99,,,0.00,,2013-06-09 09:12:00,
2013-06-09 03:22:00,87.0,-99.9,-100.00,WSW,248,11.0,-999.0,-999,-99.99,,,0.00,,2013-06-09 09:22:00,
2013-06-09 03:33:00,88.0,-99.9,-100.00,WSW,248,7.0,-999.0,-999,-99.99,,,0.00,,2013-06-09 09:33:00,
2013-06-09 03:43:00,88.0,-99.9,-100.00,WSW,248,7.0,-999.0,-999,-99.99,,,0.00,,2013-06-09 09:43:00,
2013-06-09 03:53:00,90.0,-99.9,-100.00,SW,225,3.0,-999.0,-999,-99.99,,,0.00,,2013-06-09 09:53:00,
2013-06-09 04:03:00,90.0,-99.9,-100.00,SW,225,13.0,-999.0,-999,-99.99,,,0.00,,2013-06-09 10:03:00,
2013-06-09 04:13:00,89.0,-99.9,-100.00,North,0,9.0,-999.0,-999,-99.99,,,0.00,,2013-06-09 10:13:00,
2013-06-09 04:23:00,89.0,-99.9,-100.00,North,0,9.0,-999.0,-999,-99.99,,,0.00,,2013-06-09 10:23:00,
2013-06-09 04:33:00,87.0,-99.9,-100.00,NNW,338,0.0,-999.0,-999,-99.99,,,0.00,,2013-06-09 10:33:00,
2013-06-09 04:43:00,87.0,-99.9,-100.00,NNW,338,0.0,-999.0,-999,-99.99,,,0.00,,2013-06-09 10:43:00,
2013-06-09 04:52:00,86.0,-99.9,-100.00,NW,315,3.0,-999.0,-999,-99.99,,,0.00,,2013-06-09 10:52:00,
2013-06-09 05:02:00,84.0,-99.9,-100.00,West,270,0.0,-999.0,-999,-99.99,,,0.00,,2013-06-09 11:02:00,
2013-06-09 05:12:00,84.0,-99.9,-100.00,West,270,0.0,-999.0,-999,-99.99,,,0.00,,2013-06-09 11:12:00,
2013-06-09 05:22:00,83.0,-99.9,-100.00,West,270,0.0,-999.0,-999,-99.99,,,0.00,,2013-06-09 11:22:00,
2013-06-09 05:32:00,82.0,-99.9,-100.00,West,270,7.0,-999.0,-999,-99.99,,,0.00,,2013-06-09 11:32:00,
2013-06-09 05:42:00,82.0,-99.9,-100.00,West,270,7.0,-999.0,-999,-99.99,,,0.00,,2013-06-09 11:42:00,
2013-06-09 05:53:00,80.0,-99.9,-100.00,West,270,0.0,-999.0,-999,-99.99,,,0.00,,2013-06-09 11:53:00,
2013-06-09 06:03:00,80.0,-99.9,-100.00,West,270,2.0,-999.0,-999,-99.99,,,0.00,,2013-06-09 12:03:00,
2013-06-09 06:12:00,80.0,-99.9,-100.00,West,270,2.0,-999.0,-999,-99.99,,,0.00,,2013-06-09 12:12:00,
2013-06-09 06:22:00,80.0,-99.9,-100.00,West,270,0.0,-999.0,-999,-99.99,,,0.00,,2013-06-09 12:22:00,
2013-06-09 06:32:00,79.0,-99.9,-100.00,West,270,0.0,-999.0,-999,-99.99,,,0.00,,2013-06-09 12:32:00,
2013-06-09 06:42:00,79.0,-99.9,-100.00,West,270,0.0,-999.0,-999,-99.99,,,0.00,,2013-06-09 12:42:00,
2013-06-09 06:53:00,79.0,-99.9,-100.00,West,270,3.0,-999.0,-999,-99.99,,,0.00,,2013-06-09 12:53:00,
2013-06-09 07:02:00,80.0,-99.9,-100.00,West,270,0.0,-999.0,-999,-99.99,,,0.00,,2013-06-09 13:02:00,
2013-06-09 07:13:00,80.0,-99.9,-100.00,West,270,0.0,-999.0,-999,-99.99,,,0.00,,2013-06-09 13:13:00,
2013-06-09 07:23:00,79.0,-99.9,-100.00,West,270,6.0,-999.0,-999,-99.99,,,0.00,,2013-06-09 13:23:00,
2013-06-09 07:32:00,79.0,-99.9,-100.00,West,270,7.0,-999.0,-999,-99.99,,,0.00,,2013-06-09 13:32:00,
2013-06-09 07:43:00,79.0,-99.9,-100.00,West,270,7.0,-999.0,-999,-99.99,,,0.00,,2013-06-09 13:43:00,
2013-06-09 07:52:00,79.0,-99.9,-100.00,West,270,7.0,-999.0,-999,-99.99,,,0.00,,2013-06-09 13:52:00,
2013-06-09 08:02:00,79.0,-99.9,-100.00,West,270,4.0,-999.0,-999,-99.99,,,0.00,,2013-06-09 14:02:00,
2013-06-09 08:12:00,79.0,-99.9,-100.00,West,270,4.0,-999.0,-999,-99.99,,,0.00,,2013-06-09 14:12:00,
2013-06-09 08:22:00,80.0,-99.9,-100.00,West,270,0.0,-999.0,-999,-99.99,,,0.00,,2013-06-09 14:22:00,
2013-06-09 08:32:00,81.0,-99.9,-100.00,NW,315,0.0,-999.0,-999,-99.99,,,0.00,,2013-06-09 14:32:00,
2013-06-09 08:43:00,82.0,-99.9,-100.00,NW,315,0.0,-999.0,-999,-99.99,,,0.00,,2013-06-09 14:43:00,
2013-06-09 08:52:00,82.0,-99.9,-100.00,NW,315,0.0,-999.0,-999,-99.99,,,0.00,,2013-06-09 14:52:00,
2013-06-09 09:02:00,81.0,-99.9,-100.00,WNW,293,0.0,-999.0,-999,-99.99,,,0.00,,2013-06-09 15:02:00,
2013-06-09 09:12:00,81.0,-99.9,-100.00,WNW,293,0.0,-999.0,-999,-99.99,,,0.00,,2013-06-09 15:12:00,
2013-06-09 09:22:00,82.0,-99.9,-100.00,NW,315,0.0,-999.0,-999,-99.99,,,0.00,,2013-06-09 15:22:00,
2013-06-09 09:33:00,83.0,-99.9,-100.00,NNW,338,0.0,-999.0,-999,-99.99,,,0.00,,2013-06-09 15:33:00,
2013-06-09 09:44:00,83.0,-99.9,-100.00,NNW,338,0.0,-999.0,-999,-99.99,,,0.00,,2013-06-09 15:44:00,
2013-06-09 09:53:00,85.0,-99.9,-100.00,NW,315,4.0,-999.0,-999,-99.99,,,0.00,,2013-06-09 15:53:00,
2013-06-09 10:03:00,86.0,-99.9,-100.00,NW,315,0.0,-999.0,-999,-99.99,,,0.00,,2013-06-09 16:03:00,
2013-06-09 10:13:00,86.0,-99.9,-100.00,NW,315,0.0,-999.0,-999,-99.99,,,0.00,,2013-06-09 16:13:00,
2013-06-09 10:23:00,87.0,-99.9,-100.00,NNW,338,3.0,-999.0,-999,-99.99,,,0.00,,2013-06-09 16:23:00,
2013-06-09 10:33:00,88.0,-99.9,-100.00,WNW,293,0.0,-999.0,-999,-99.99,,,0.00,,2013-06-09 16:33:00,
2013-06-09 10:43:00,88.0,-99.9,-100.00,WNW,293,0.0,-999.0,-999,-99.99,,,0.00,,2013-06-09 16:43:00,
2013-06-09 10:53:00,89.0,-99.9,-100.00,WNW,293,0.0,-999.0,-999,-99.99,,,0.00,,2013-06-09 16:53:00,
2013-06-09 11:03:00,91.0,-99.9,-100.00,SW,225,2.0,-999.0,-999,-99.99,,,0.00,,2013-06-09 17:03:00,
2013-06-09 11:12:00,90.0,-99.9,-100.00,NNW,338,0.0,-999.0,-999,-99.99,,,0.00,,2013-06-09 17:12:00,
2013-06-09 11:22:00,90.0,-99.9,-100.00,NNW,338,0.0,-999.0,-999,-99.99,,,0.00,,2013-06-09 17:22:00,
2013-06-09 11:32:00,92.0,-99.9,-100.00,NW,315,3.0,-999.0,-999,-99.99,,,0.00,,2013-06-09 17:32:00,
2013-06-09 11:42:00,92.0,-99.9,-100.00,NW,315,3.0,-999.0,-999,-99.99,,,0.00,,2013-06-09 17:42:00,
2013-06-09 11:52:00,96.0,-99.9,-100.00,North,0,3.0,-999.0,-999,-99.99,,,0.00,,2013-06-09 17:52:00,
2013-06-09 12:03:00,96.0,-99.9,-100.00,North,0,0.0,-999.0,-999,-99.99,,,0.00,,2013-06-09 18:03:00,
2013-06-09 12:12:00,96.0,-99.9,-100.00,North,0,0.0,-999.0,-999,-99.99,,,0.00,,2013-06-09 18:12:00,
2013-06-09 12:22:00,96.0,-99.9,-100.00,North,0,0.0,-999.0,-999,-99.99,,,0.00,,2013-06-09 18:22:00,
2013-06-09 12:33:00,97.0,-99.9,-100.00,NW,315,0.0,-999.0,-999,-99.99,,,0.00,,2013-06-09 18:33:00,
2013-06-09 12:42:00,97.0,-99.9,-100.00,NW,315,0.0,-999.0,-999,-99.99,,,0.00,,2013-06-09 18:42:00,
2013-06-09 12:52:00,98.0,-99.9,-100.00,SSE,158,0.0,-999.0,-999,-99.99,,,0.00,,2013-06-09 18:52:00,
2013-06-09 13:03:00,98.0,-99.9,-100.00,ESE,113,0.0,-999.0,-999,-99.99,,,0.00,,2013-06-09 19:03:00,
2013-06-09 13:13:00,98.0,-99.9,-100.00,ESE,113,0.0,-999.0,-999,-99.99,,,0.00,,2013-06-09 19:13:00,
2013-06-09 13:22:00,101.0,-99.9,-100.00,South,180,0.0,-999.0,-999,-99.99,,,0.00,,2013-06-09 19:22:00,
2013-06-09 13:32:00,103.0,-99.9,-100.00,ESE,113,0.0,-999.0,-999,-99.99,,,0.00,,2013-06-09 19:32:00,
2013-06-09 13:52:00,102.0,-99.9,-100.00,South,180,0.0,-999.0,-999,-99.99,,,0.00,,2013-06-09 19:52:00,
2013-06-09 14:03:00,104.0,-99.9,-100.00,ENE,68,4.0,-999.0,-999,-99.99,,,0.00,,2013-06-09 20:03:00,
2013-06-09 14:22:00,103.0,-99.9,-100.00,East,90,0.0,-999.0,-999,-99.99,,,0.00,,2013-06-09 20:22:00,
2013-06-09 14:32:00,101.0,-99.9,-100.00,East,90,0.0,-999.0,-999,-99.99,,,0.00,,2013-06-09 20:32:00,
2013-06-09 14:42:00,101.0,-99.9,-100.00,East,90,0.0,-999.0,-999,-99.99,,,0.00,,2013-06-09 20:42:00,
2013-06-09 14:53:00,102.0,-99.9,-100.00,East,90,0.0,-999.0,-999,-99.99,,,0.00,,2013-06-09 20:53:00,
2013-06-09 15:03:00,102.0,-99.9,-100.00,ESE,113,0.0,-999.0,-999,-99.99,,,0.00,,2013-06-09 21:03:00,
2013-06-09 15:12:00,105.0,-99.9,-100.00,ESE,113,3.0,-999.0,-999,-99.99,,,0.00,,2013-06-09 21:12:00,
2013-06-09 15:22:00,105.0,-99.9,-100.00,ESE,113,3.0,-999.0,-999,-99.99,,,0.00,,2013-06-09 21:22:00,
2013-06-09 15:33:00,106.0,-99.9,-100.00,ESE,113,0.0,-999.0,-999,-99.99,,,0.00,,2013-06-09 21:33:00,
2013-06-09 15:53:00,103.0,-99.9,-100.00,WNW,293,0.0,-999.0,-999,-99.99,,,0.00,,2013-06-09 21:53:00,
2013-06-09 16:02:00,105.0,-99.9,-100.00,SE,135,0.0,-999.0,-999,-99.99,,,0.00,,2013-06-09 22:02:00,
2013-06-09 16:13:00,106.0,-99.9,-100.00,SSE,158,0.0,-999.0,-999,-99.99,,,0.00,,2013-06-09 22:13:00,
2013-06-09 16:23:00,106.0,-99.9,-100.00,SSE,158,0.0,-999.0,-999,-99.99,,,0.00,,2013-06-09 22:23:00,
2013-06-09 16:33:00,107.0,-99.9,-100.00,East,90,0.0,-999.0,-999,-99.99,,,0.00,,2013-06-09 22:33:00,
2013-06-09 16:52:00,106.0,-99.9,-100.00,East,90,0.0,-999.0,-999,-99.99,,,0.00,,2013-06-09 22:52:00,
2013-06-09 17:02:00,106.0,-99.9,-100.00,ESE,113,0.0,-999.0,-999,-99.99,,,0.00,,2013-06-09 23:02:00,
2013-06-09 17:12:00,103.0,-99.9,-100.00,SSE,158,0.0,-999.0,-999,-99.99,,,0.00,,2013-06-09 23:12:00,
2013-06-09 17:22:00,103.0,-99.9,-100.00,SSE,158,0.0,-999.0,-999,-99.99,,,0.00,,2013-06-09 23:22:00,
2013-06-09 17:32:00,103.0,-99.9,-100.00,East,90,0.0,-999.0,-999,-99.99,,,0.00,,2013-06-09 23:32:00,
2013-06-09 17:43:00,103.0,-99.9,-100.00,East,90,0.0,-999.0,-999,-99.99,,,0.00,,2013-06-09 23:43:00,
2013-06-09 17:52:00,101.0,-99.9,-100.00,NE,45,0.0,-999.0,-999,-99.99,,,0.00,,2013-06-09 23:52:00,
2013-06-09 18:02:00,103.0,-99.9,-100.00,NNW,338,0.0,-999.0,-999,-99.99,,,0.00,,2013-06-10 00:02:00,
2013-06-09 18:13:00,103.0,-99.9,-100.00,NNW,338,0.0,-999.0,-999,-99.99,,,0.00,,2013-06-10 00:13:00,
2013-06-09 18:22:00,101.0,-99.9,-100.00,North,0,0.0,-999.0,-999,-99.99,,,0.00,,2013-06-10 00:22:00,
2013-06-09 18:32:00,101.0,-99.9,-100.00,East,90,0.0,-999.0,-999,-99.99,,,0.00,,2013-06-10 00:32:00,
2013-06-09 18:42:00,101.0,-99.9,-100.00,East,90,0.0,-999.0,-999,-99.99,,,0.00,,2013-06-10 00:42:00,
2013-06-09 18:52:00,100.0,-99.9,-100.00,NE,45,0.0,-999.0,-999,-99.99,,,0.00,,2013-06-10 00:52:00,
2013-06-09 19:03:00,99.0,-99.9,-100.00,ENE,68,0.0,-999.0,-999,-99.99,,,0.00,,2013-06-10 01:03:00,
2013-06-09 19:12:00,99.0,-99.9,-100.00,ENE,68,0.0,-999.0,-999,-99.99,,,0.00,,2013-06-10 01:12:00,
2013-06-09 19:22:00,98.0,-99.9,-100.00,ENE,68,0.0,-999.0,-999,-99.99,,,0.00,,2013-06-10 01:22:00,
2013-06-09 19:32:00,98.0,-99.9,-100.00,NE,45,0.0,-999.0,-999,-99.99,,,0.00,,2013-06-10 01:32:00,
2013-06-09 19:43:00,98.0,-99.9,-100.00,NE,45,0.0,-999.0,-999,-99.99,,,0.00,,2013-06-10 01:43:00,
2013-06-09 19:52:00,96.0,-99.9,-100.00,ESE,113,0.0,-999.0,-999,-99.99,,,0.00,,2013-06-10 01:52:00,
2013-06-09 20:02:00,95.0,-99.9,-100.00,ENE,68,0.0,-999.0,-999,-99.99,,,0.00,,2013-06-10 02:02:00,
2013-06-09 20:12:00,95.0,-99.9,-100.00,ENE,68,0.0,-999.0,-999,-99.99,,,0.00,,2013-06-10 02:12:00,
2013-06-09 20:22:00,94.0,-99.9,-100.00,ENE,68,0.0,-999.0,-999,-99.99,,,0.00,,2013-06-10 02:22:00,
2013-06-09 20:32:00,93.0,-99.9,-100.00,ENE,68,0.0,-999.0,-999,-99.99,,,0.00,,2013-06-10 02:32:00,
2013-06-09 20:42:00,93.0,-99.9,-100.00,ENE,68,0.0,-999.0,-999,-99.99,,,0.00,,2013-06-10 02:42:00,
2013-06-09 20:52:00,92.0,-99.9,-100.00,ENE,68,0.0,-999.0,-999,-99.99,,,0.00,,2013-06-10 02:52:00,
2013-06-09 21:02:00,92.0,-99.9,-100.00,ENE,68,0.0,-999.0,-999,-99.99,,,0.00,,2013-06-10 03:02:00,
2013-06-09 21:12:00,92.0,-99.9,-100.00,ENE,68,0.0,-999.0,-999,-99.99,,,0.00,,2013-06-10 03:12:00,
2013-06-09 21:22:00,91.0,-99.9,-100.00,ENE,68,0.0,-999.0,-999,-99.99,,,0.00,,2013-06-10 03:22:00,
2013-06-09 21:33:00,91.0,-99.9,-100.00,ENE,68,0.0,-999.0,-999,-99.99,,,0.00,,2013-06-10 03:33:00,
2013-06-09 21:43:00,91.0,-99.9,-100.00,ENE,68,0.0,-999.0,-999,-99.99,,,0.00,,2013-06-10 03:43:00,
2013-06-09 21:53:00,90.0,-99.9,-100.00,ENE,68,0.0,-999.0,-999,-99.99,,,0.00,,2013-06-10 03:53:00,
2013-06-09 22:03:00,90.0,-99.9,-100.00,ENE,68,0.0,-999.0,-999,-99.99,,,0.00,,2013-06-10 04:03:00,
2013-06-09 22:13:00,89.0,-99.9,-100.00,ENE,68,0.0,-999.0,-999,-99.99,,,0.00,,2013-06-10 04:13:00,
2013-06-09 22:23:00,89.0,-99.9,-100.00,ENE,68,0.0,-999.0,-999,-99.99,,,0.00,,2013-06-10 04:23:00,
2013-06-09 22:33:00,88.0,-99.9,-100.00,ENE,68,0.0,-999.0,-999,-99.99,,,0.00,,2013-06-10 04:33:00,
2013-06-09 22:42:00,88.0,-99.9,-100.00,ENE,68,0.0,-999.0,-999,-99.99,,,0.00,,2013-06-10 04:42:00,
2013-06-09 22:53:00,88.0,-99.9,-100.00,ENE,68,0.0,-999.0,-999,-99.99,,,0.00,,2013-06-10 04:53:00,
2013-06-09 23:02:00,87.0,-99.9,-100.00,ENE,68,0.0,-999.0,-999,-99.99,,,0.00,,2013-06-10 05:02:00,
2013-06-09 23:12:00,87.0,-99.9,-100.00,ENE,68,0.0,-999.0,-999,-99.99,,,0.00,,2013-06-10 05:12:00,
2013-06-09 23:22:00,87.0,-99.9,-100.00,ENE,68,0.0,-999.0,-999,-99.99,,,0.00,,2013-06-10 05:22:00,
2013-06-09 23:32:00,86.0,-99.9,-100.00,ENE,68,0.0,-999.0,-999,-99.99,,,0.00,,2013-06-10 05:32:00,
2013-06-09 23:42:00,86.0,-99.9,-100.00,ENE,68,0.0,-999.0,-999,-99.99,,,0.00,,2013-06-10 05:42:00,
2013-06-09 23:52:00,85.0,-99.9,-100.00,ENE,68,0.0,-999.0,-999,-99.99,,,0.00,,2013-06-10 05:52:00,